This is the latest recevied weather packets stored in our database for station/object N7SHZ. If no packets are shown the sender has not sent any weather packets the latest 1 day(s).
| Time | Temp. | Humidity | Pressure | Rain* | Wind** | Luminosity | Snow |
|---|---|---|---|---|---|---|---|
| 1777981116 | 0° C | 95% | 1027 hPa | - | 6.26 m/s, 76° | 0 W/m² | - |
| 1777980813 | 0.56° C | 95% | 1027 hPa | - | 4.92 m/s, 76° | 0 W/m² | - |
| 1777980509 | 0.56° C | 94% | 1027 hPa | - | 5.36 m/s, 70° | 0 W/m² | - |
| 1777980207 | 0.56° C | 94% | 1027.3 hPa | - | 4.92 m/s, 65° | 0 W/m² | - |
| 1777979902 | 0.56° C | 94% | 1026.9 hPa | - | 4.92 m/s, 87° | 0 W/m² | - |
| 1777979598 | 0.56° C | 94% | 1027.3 hPa | - | 4.92 m/s, 82° | 0 W/m² | - |
| 1777979294 | 0.56° C | 94% | 1027.1 hPa | - | 4.02 m/s, 87° | 0 W/m² | - |
| 1777978991 | 0.56° C | 94% | 1027.1 hPa | - | 4.02 m/s, 83° | 0 W/m² | - |
| 1777978688 | 0.56° C | 93% | 1027.3 hPa | - | 4.02 m/s, 79° | 0 W/m² | - |
| 1777978384 | 0.56° C | 93% | 1027.1 hPa | - | 4.92 m/s, 82° | 0 W/m² | - |
| 1777978080 | 0.56° C | 93% | 1027.1 hPa | - | 4.92 m/s, 95° | 0 W/m² | - |
| 1777977778 | 0.56° C | 93% | 1027.1 hPa | - | 4.47 m/s, 97° | 0 W/m² | - |
| 1777977474 | 0.56° C | 93% | 1027.1 hPa | - | 4.02 m/s, 91° | 0 W/m² | - |
| 1777977172 | 0.56° C | 93% | 1027.4 hPa | - | 4.92 m/s, 82° | 0 W/m² | - |
| 1777976869 | 1.11° C | 91% | 1027.3 hPa | - | 2.68 m/s, 86° | 0 W/m² | - |
| 1777976567 | 1.67° C | 91% | 1027.1 hPa | - | 2.68 m/s, 98° | 0 W/m² | - |
| 1777976266 | 2.22° C | 90% | 1027.3 hPa | - | 0 m/s | 0 W/m² | - |
| 1777975961 | 2.78° C | 90% | 1027.1 hPa | - | 2.24 m/s, 229° | 0 W/m² | - |
| 1777975658 | 2.78° C | 90% | 1027.3 hPa | - | 2.68 m/s, 254° | 0 W/m² | - |
| 1777975355 | 2.78° C | 89% | 1027.3 hPa | - | 3.13 m/s, 232° | 0 W/m² | - |
| 1777975050 | 2.78° C | 89% | 1027.5 hPa | - | 2.68 m/s, 236° | 0 W/m² | - |
| 1777974748 | 2.78° C | 88% | 1027.3 hPa | - | 3.58 m/s, 235° | 0 W/m² | - |
| 1777974444 | 2.78° C | 88% | 1027.3 hPa | - | 4.47 m/s, 234° | 0 W/m² | - |
| 1777974140 | 2.78° C | 87% | 1027.1 hPa | - | 5.81 m/s, 233° | 0 W/m² | - |
| 1777973836 | 2.78° C | 86% | 1027.1 hPa | - | 4.47 m/s, 231° | 0 W/m² | - |
* Rain since midnight (hover to see other rain measurements)
** Current wind speed in m/s (hover to see current wind gust speed)